Weather History for Akron Canton, OH

Change the Weather History Date:

Tuesday, September 22, 1959

  Actual Average Record
Temperature  
Mean Temperature 71 °F 61 °F  
Max Temperature 81 °F 71 °F 93 °F (1908)
Min Temperature 61 °F 51 °F 38 °F (1976)
Degree Days  
Heating Degree Days 0 6  
Month to date heating degree days 62  
Since 1 July heating degree days 82  
Cooling Degree Days 6 1  
Month to date cooling degree days 57  
Year to date cooling degree days 639  
Growing Degree Days 21 (Base 50)    
Moisture  
Dew Point 61 °F    
Average Humidity 74    
Maximum Humidity 93    
Minimum Humidity 58    
Precipitation  
Precipitation 0.09 in 0.11 in 1.17 in (1989)
Month to date precipitation 2.58  
Year to date precipitation 29.78  
Snow  
Snow 0.00 in 0.00 in - ()
Month to date snowfall 0.0  
Since 1 July snowfall 0.0  
Since 1 September snowfall 0.0  
Snow Depth -    
Sea Level Pressure  
Sea Level Pressure 30.13 in    
Wind  
Wind Speed 10 mph (SSW)    
Max Wind Speed 15 mph    
Max Gust Speed -    
Visibility 9 miles    
Events Rain    
T = Trace of Precipitation, MM = Missing Value Source: NWS Daily Summary

Daily Weather History Graph

Daily Weather History Graph

Search for Another Location

Airport:

Trip Planner

Search our weather history database for the weather conditions in past years. The results will help you decide how hot, cold, wet, or windy it might be!

Date:

Astronomy

Sep. 22, 1959 Rise Set
Actual Time 7:12 AM EDT 7:24 PM EDT
Civil Twilight 6:45 AM EDT 7:51 PM EDT
Nautical Twilight 6:12 AM EDT 8:23 PM EDT
Astronomical Twilight 5:40 AM EDT 8:56 PM EDT
Moon 10:47 PM EDT (9/22) 12:26 PM EDT (9/22)
Length of Visible Light 13h 06m
Length of Day
12h 11m
Waning Gibbous, 72% of the Moon is Illuminated
Sep 22
Waning Gibbous
Sep 24
Last Quarter
Oct 2
New
Oct 9
First Quarter
Oct 16
Full

Hourly Weather History & Observations

Time (EDT) Temp. Heat Index Dew Point Humidity Pressure Visibility Wind Dir Wind Speed Gust Speed Precip Events Conditions
12:00 AM 66.0 °F - 55.0 °F 68% 30.11 in 15.0 mi SSW 8.1 mph - N/A   Drizzle
1:00 AM 66.0 °F - 55.0 °F 68% 30.12 in 15.0 mi South 11.5 mph - N/A   Drizzle
2:00 AM 64.9 °F - 55.0 °F 70% 30.11 in 15.0 mi South 11.5 mph - N/A   Drizzle
3:00 AM 61.0 °F - 55.0 °F 81% 30.12 in 15.0 mi South 8.1 mph - N/A   Drizzle
4:00 AM 62.1 °F - 55.0 °F 78% 30.11 in 15.0 mi South 9.2 mph - N/A   Drizzle
5:00 AM 63.0 °F - 55.0 °F 75% 30.11 in 15.0 mi SSW 8.1 mph - N/A   Drizzle
6:00 AM 61.0 °F - 57.9 °F 90% 30.12 in 5.0 mi South 11.5 mph - 0.09 in Rain Light Rain Showers
7:00 AM 61.0 °F - 59.0 °F 93% 30.13 in 5.0 mi South 9.2 mph - N/A Rain Light Rain Showers
8:00 AM 63.0 °F - 57.9 °F 84% 30.13 in 6.0 mi South 12.7 mph - N/A   Drizzle
9:00 AM 64.0 °F - 60.1 °F 87% 30.14 in 6.0 mi South 8.1 mph - N/A   Drizzle
10:00 AM 64.9 °F - 61.0 °F 87% 30.16 in 6.0 mi SW 11.5 mph - N/A   Drizzle
11:00 AM 69.1 °F - 63.0 °F 81% 30.16 in 6.0 mi SW 10.4 mph - N/A   Drizzle
12:00 PM 72.0 °F - 64.0 °F 76% 30.16 in 6.0 mi SW 15.0 mph - N/A   Drizzle
1:00 PM 75.9 °F - 64.0 °F 67% 30.14 in 6.0 mi SW 8.1 mph - N/A   Drizzle
2:00 PM 79.0 °F - 66.0 °F 64% 30.14 in 6.0 mi WNW 6.9 mph - N/A   Drizzle
3:00 PM 81.0 °F 82.7 °F 64.9 °F 58% 30.13 in 6.0 mi SW 10.4 mph - N/A   Drizzle
4:00 PM 80.1 °F 81.9 °F 64.9 °F 60% 30.11 in 6.0 mi SW 11.5 mph - N/A   Drizzle
5:00 PM 80.1 °F 81.9 °F 64.9 °F 60% 30.11 in 6.0 mi SSW 9.2 mph - N/A   Drizzle
6:00 PM 80.1 °F 81.9 °F 64.9 °F 60% 30.12 in 6.0 mi SW 11.5 mph - N/A   Drizzle
7:00 PM 77.0 °F - 66.0 °F 69% 30.13 in 7.0 mi South 8.1 mph - N/A   Drizzle
8:00 PM 73.9 °F - 64.9 °F 73% 30.13 in 7.0 mi South 9.2 mph - N/A   Drizzle
9:00 PM 72.0 °F - 64.9 °F 78% 30.13 in 10.0 mi South 10.4 mph - N/A   Drizzle
10:00 PM 72.0 °F - 64.9 °F 78% 30.13 in 10.0 mi South 11.5 mph - N/A   Drizzle
11:00 PM 72.0 °F - 64.0 °F 76% 30.12 in 10.0 mi South 11.5 mph - N/A   Drizzle